Location: Gad�tanya
(48.0500°N, 20.8500°E)
Time: 11:45:57
(UTC+00:00)

Cosmos 2369 Rocket - Pass Details

Date: 05 July 2020
Orbit: 829 x 852 km, 71.0° (Epoch: 14 August)

Event Time Altitude Azimuth Distance (km) Brightness Sun altitude
Rises 21:54:25 0° 336° (NNW) 3,383 6.9 -18.5°
Reaches altitude 10° 21:57:05 10° 346° (NNW) 2,447 5.9 -18.6°
Maximum altitude 22:02:10 34° 50° (NE) 1,345 3.5 -18.7°
Enters shadow 22:06:52 12° 113° (ESE) 2,320 4.2 -18.9°
